#timestamp,LO_Frequency,Hit,StdDev 
1460023215.9,286046997.7,N
1460023235.7,286046999.0,N
1460023255.5,286047000.8,N
1460023275.3,286046998.0,N
1460023295.2,286047001.1,N
1460023315.0,286046998.5,N
1460023315.9,286046998.5,N
1460023335.7,286046999.0,N
1460023355.6,286046995.2,N
1460023375.4,286046996.1,N
1460023395.2,286046996.5,N
1460023415.1,286047001.0,N
1460023416.0,286047001.0,N
1460023435.8,286046995.3,N
1460023455.6,286046995.8,N
1460023475.5,286046996.0,N
1460023495.3,286046994.7,N
1460023515.1,286046993.8,N
1460023535.9,286046994.7,N
1460023555.7,286046990.1,Y
1460023575.5,286046989.1,P
1460023595.4,286046991.3,N
1460023615.2,286046992.6,N
1460023635.0,286046993.0,N
1460023635.9,286046993.0,N
1460023655.8,286046993.4,N
1460023675.6,286046997.0,N
1460023695.4,286046997.0,N
1460023715.2,286046994.9,N
1460023735.1,286046997.2,N
1460023736.0,286046997.2,N
1460023755.8,286046993.8,N
1460023775.6,286046993.5,N
1460023795.5,286046994.5,N
1460023815.3,286046996.2,N
1460023835.1,286046992.7,N
1460023855.9,286046992.3,Y
1460023875.7,286046994.4,P
1460023895.5,286046996.0,P
1460023915.4,286046997.0,P
1460023935.2,286046998.6,N
1460023955.0,286046998.1,N
1460023955.9,286046998.1,N
1460023975.8,286046995.0,Y
1460023995.6,286047000.9,P
1460024015.4,286046999.2,N
1460024035.3,286046999.4,N
1460024055.1,286046999.2,N
1460024056.0,286046999.2,N
1460024075.8,286047000.7,N
1460024095.7,286046999.2,N
1460024115.5,286046996.6,N
1460024135.3,286046998.4,N
1460024155.2,286046999.4,N
1460024175.9,286046999.9,N
1460024195.7,286046999.9,N
1460024215.5,286047000.4,N
1460024235.4,286046998.9,N
1460024255.2,286046995.0,Y
1460024275.0,286046999.2,P
1460024276.0,286046999.2,P
1460024295.8,286046999.3,P
1460024315.6,286046996.8,Y
1460024335.5,286046996.5,P
1460024355.3,286046997.3,N
1460024375.1,286046998.7,N
1460024395.8,286047000.1,N
1460024415.7,286046998.2,N
1460024435.5,286047002.6,N
1460024455.3,286046998.7,N
1460024475.2,286046995.7,N
1460024495.9,286046994.3,N
1460024515.7,286046995.4,N
1460024535.6,286046999.5,N
1460024555.4,286046998.1,N
1460024575.2,286047002.0,N
1460024595.1,286046998.6,N
1460024596.0,286046998.6,N
1460024615.8,286046998.1,N
1460024635.6,286047001.1,N
1460024655.5,286046998.9,N
1460024675.3,286046997.9,N
1460024695.1,286046995.0,N
1460024715.8,286046998.0,N
1460024735.7,286046997.4,N
1460024755.5,286046997.0,N
1460024775.3,286046996.7,N
1460024795.2,286046998.2,N
1460024815.9,286046998.1,N
1460024835.7,286047000.0,N
1460024855.6,286046999.8,N
1460024875.4,286046999.5,N
1460024895.2,286046998.8,N
1460024915.1,286047000.0,N
1460024916.0,286047000.0,N
1460024935.8,286046997.5,N
1460024955.6,286046993.6,Y
1460024975.5,286046996.1,P
1460024995.3,286047000.9,N
1460025015.1,286047002.2,N
1460025035.9,286046998.2,N
1460025055.7,286047001.1,N
1460025075.5,286047000.4,N
1460025095.3,286047000.5,N
1460025115.2,286046997.5,N
1460025135.0,286046993.6,Y
1460025135.9,286046993.6,P
1460025155.8,286046993.8,N
1460025175.6,286046997.7,N
1460025195.4,286046999.2,N
1460025215.2,286047000.1,N
1460025235.1,286047004.4,N
1460025236.0,286047004.4,N
1460025255.8,286047002.6,N
1460025275.6,286047000.7,N
1460025295.5,286046998.6,N
1460025315.3,286046997.1,N
1460025335.1,286046999.6,N
1460025355.9,286046998.8,N
1460025375.7,286046998.2,N
1460025395.5,286046998.8,N
1460025415.4,286047000.7,N
1460025435.2,286047002.5,N
1460025455.0,286047001.4,N
1460025455.9,286047001.4,N
1460025475.8,286047005.9,N
1460025495.6,286047000.1,N
1460025515.4,286047002.5,N
1460025535.2,286047000.9,N
1460025555.1,286047001.9,N
1460025556.0,286047001.9,N
1460025575.8,286047004.3,N
1460025595.6,286047004.2,N
1460025615.5,286047000.0,N
1460025635.3,286047000.2,N
1460025655.1,286046998.6,N
1460025675.9,286046999.2,N
1460025695.7,286046999.4,N
1460025715.5,286047000.3,N
1460025735.4,286047004.2,N
1460025755.2,286047006.3,N
1460025775.0,286047008.0,Y
1460025775.9,286047008.0,P
1460025795.8,286047003.3,N
1460025815.6,286047001.8,N
1460025835.4,286047000.6,N
1460025855.3,286046999.9,N
1460025875.1,286047000.2,N
1460025876.0,286047000.2,N
1460025895.8,286046999.9,N
1460025915.7,286046999.2,N
1460025935.5,286047001.0,N
1460025955.3,286047000.8,N
1460025975.1,286046996.7,N
1460025995.9,286046994.6,N
1460026015.7,286046994.6,N
1460026035.5,286046999.3,N
1460026055.4,286046998.2,N
1460026075.2,286047000.2,N
1460026095.0,286047000.1,N
1460026095.9,286047000.1,N
1460026115.8,286047003.0,N
1460026135.6,286047003.3,N
1460026155.4,286047006.2,N
1460026175.3,286047003.5,N
1460026195.1,286046998.0,N
1460026196.0,286046998.0,N
1460026215.8,286046993.2,N
1460026235.7,286046992.8,N
1460026255.5,286046988.5,Y
1460026275.3,286046987.4,P
1460026295.2,286046987.4,N
1460026315.9,286046987.4,N
1460026335.7,286046992.8,N
1460026355.6,286046993.0,N
1460026375.4,286046992.4,N
1460026395.2,286046995.8,N
1460026415.0,286046995.6,N
1460026416.0,286046995.6,N
1460026435.8,286046993.2,N
1460026455.6,286046991.4,N
1460026475.5,286046988.5,Y
1460026495.3,286046999.0,P
1460026515.1,286047000.2,N
1460026535.8,286047001.7,N
1460026555.7,286047004.4,N
1460026575.5,286047002.6,N
1460026595.3,286047004.5,N
1460026615.2,286047007.4,N
1460026635.9,286047006.1,N
1460026655.7,286047008.3,N
1460026675.6,286047012.2,N
1460026695.4,286047010.5,N
1460026715.2,286047006.3,N
1460026735.1,286047010.3,N
1460026736.0,286047010.3,N
1460026755.8,286047010.8,N
1460026775.6,286047006.2,N
1460026795.5,286047008.7,N
